Regional Weather Roundup
Issued by NWS Midland/Odessa, TX

Skip options and go directly to product.
Home | Oldest Version | Previous Version | Current Version | All | Text Only | Save Text | Print | Product List | Glossary On

Skip product version selection by date and time.   
020
ASUS44 KMAF 271710
RWRMAF
MIDLAND AREA WEATHER ROUNDUP
NATIONAL WEATHER SERVICE MIDLAND TX
1200 PM CDT WED JUL 27 2016

...IN SOUTHWEST TEXAS AND SOUTHEAST NEW MEXICO...

CITY           SKY/WX    TMP DP  RH WIND       PRES   REMARKS
ALPINE         CLOUDY    83  59  43 E6        30.22S
ANDREWS        FAIR      84  63  48 SW3       30.11F
ARTESIA        SUNNY     86  63  45 SE7G13    30.12S
BIG SPRING     SUNNY     87  65  47 NE3       30.09S
CARLSBAD       SUNNY     86  63  45 CALM      30.09S
DRYDEN           N/A     82  71  69 VRB7      30.04F
FORT STOCKTON  SUNNY     88  63  43 E9        30.08S
GUAD PASS      CLOUDY    78  57  48 E6        30.26R
HOBBS          MOSUNNY   84  59  42 VRB5      30.14S
MARFA          CLOUDY    82  59  45 VRB3      30.21S
MIDLAND AIRPK  SUNNY     88  64  45 CALM      30.09S
MIDLAND INTL   SUNNY     86  64  47 CALM      30.09S
ODESSA         SUNNY     85  65  51 CALM      30.10S
PECOS          SUNNY     87  64  46 CALM      30.06F
PRESIDIO       NOT AVBL
SEMINOLE       SUNNY     85  60  43 CALM      30.12S
SNYDER           N/A     87  65  47 N5        30.06S
WINK           SUNNY     87  64  46 E5        30.07R
$$
...OTHER STATIONS IN TEXAS...

CITY           SKY/WX    TMP DP  RH WIND       PRES   REMARKS
ABILENE        PTSUNNY   91  66  43 CALM      30.02S
AMARILLO       SUNNY     89  64  43 SE6       30.12R
AUSTIN         CLOUDY    75  74  96 SW3       30.01S
BROWNSVILLE    PTSUNNY   91  74  57 SE17G23   29.97R HX 100
CORPUS CHRISTI PTSUNNY   91  76  61 SE18G26   29.97S HX 103
DALLAS FTW     PTSUNNY   92  71  50 SW8       29.96S
DEL RIO        CLOUDY    83  73  72 SE6       29.99S
EL PASO        CLOUDY    81  64  56 N10       30.14R
HOUSTON INT    LGT RAIN  73  71  93 SE8       30.02S
LUBBOCK        MOSUNNY   91  62  37 NE6       30.10S
SAN ANGELO     SUNNY     89  67  47 SW5       30.03F
SAN ANTONIO    CLOUDY    87  74  64 S8        30.00F
WACO           MOSUNNY   90  68  48 CALM      29.97S
WICHITA FALLS  NOT AVBL
$$
...OTHER LOCATIONS IN NEW MEXICO...

CITY           SKY/WX    TMP DP  RH WIND       PRES   REMARKS
ALAMAGORDO     CLOUDY    77  63  61 CALM      30.18S
ALBUQUERQUE    MOSUNNY   81  57  43 W7        30.25S
CANNON AFB     SUNNY     87  61  41 VRB6      30.16S
CLOVIS         SUNNY     88  59  37 SW6       30.16R
HOLLOMAN AFB   CLOUDY    80  64  57 VRB3      30.15S
ROSWELL        SUNNY     87  62  43 NE3       30.12S
RUIDOSO          N/A     66  55  68 SE3       30.38S
SANTA FE       SUNNY     82  49  31 N10       30.29F
TRUTH OR CONSE MOSUNNY   81  57  43 CALM      30.19F
TUCUMCARI      SUNNY     88  53  30 VRB3      30.12F
$$

USA.gov is the U.S. government's official web portal to all federal, state and local government web resources and services.